{"data":{"norad_id":68956,"intl_designator":"2026-099F","name":"STARLINK-36760","alt_names":[],"object_type":"PAYLOAD","status":"ACTIVE","operator":null,"country":"US","launch_date":"2026-05-01","launch_site_code":"AFETR","launch_vehicle":null,"mission":null,"orbit_class":"UNKNOWN","rcs_meters":null,"size_class":null,"mass_kg":null,"dimensions":null,"purposes":["comms"],"wikipedia_slug":null,"has_3d_model":false,"image_url":null,"decayed_at":null,"tle_current":{"epoch":"2026-05-25T04:00:03.998880Z","epoch_age_seconds":57479,"freshness":"FRESH","line1":"1 68956U 26099F   26145.16671295 -.01899195  00000+0 -21198-1 0  9990","line2":"2 68956  53.1591 270.1082 0000925  83.4137 191.9738 15.65265716  5010","mean_motion":15.65265716,"eccentricity":9.25e-5,"inclination_deg":53.1591,"raan_deg":270.1082,"arg_perigee_deg":83.4137,"mean_anomaly_deg":191.9738,"bstar":-0.021198,"rev_number":501,"period_min":91.99715966947,"perigee_km":371.85024062028,"apogee_km":373.09910377964,"semimajor_km":6750.6116722,"source":"CELESTRAK","updated_at":"2026-05-25T13:38:22.072780Z"}}}